Station EBEF1 - 8726674 - East Bay, FL Image indicating link to RSS feed of recent meteorological observations for station EBEF1


Conditions at EBEF1 as of
(4:00 pm EDT)
2000 GMT on 04/13/2024:
     

Click on the graph icon in the table below to see a time series plot of the last five days of that observation.

5-day plot - Atmospheric Pressure Atmospheric Pressure (PRES):30.18 in
5-day plot - Pressure Tendency Pressure Tendency (PTDY):-0.07 in ( Falling )
5-day plot - Air Temperature Air Temperature (ATMP): 78.4 °F
5-day plot - Water Temperature Water Temperature (WTMP): 74.5 °F
NOS Water Level Observation Network Water Level
Previous observations
TIME
(EDT)
5-day plot - Wind Direction
WDIR
 
5-day plot - Wind Speed
WSPD
kts
5-day plot - Wind Gust
GST
kts
5-day plot - Wave Height
WVHT
ft
5-day plot - Dominant Wave Period
DPD
sec
5-day plot - Average Wave Period
APD
sec
5-day plot - Mean Wave Direction
MWD
 
5-day plot - Atmospheric Pressure
PRES
in
5-day plot - Pressure Tendency
PTDY
in
5-day plot - Air Temperature
ATMP
°F
5-day plot - Water Temperature
WTMP
°F
5-day plot - Dew Point
DEWP
°F
5-day plot - Salinity
SAL
psu
5-day plot - Visibility
VIS
nmi
5-day plot - Tide (above MLLW)
TIDE
ft
2024-04-13 03:54 pm-------30.19- 78.4 74.5----
2024-04-13 03:48 pm-------30.19- 78.4 74.5----
2024-04-13 03:42 pm-------30.19- 78.8 74.3----
2024-04-13 03:36 pm-------30.19- 78.6 74.3----
2024-04-13 03:30 pm-------30.19- 78.4 74.3----
2024-04-13 03:24 pm-------30.20- 78.6 74.3----
2024-04-13 03:18 pm-------30.20- 78.3 74.3----
2024-04-13 03:12 pm-------30.20- 78.1 74.3----
2024-04-13 03:06 pm-------30.21- 78.1 74.3----
2024-04-13 03:00 pm-------30.21-0.07 77.9 74.3----
2024-04-13 02:54 pm-------30.21- 77.5 74.3----
2024-04-13 02:48 pm-------30.22-- 74.3----
2024-04-13 02:42 pm-------30.22-- 74.3----
2024-04-13 02:36 pm-------30.22-- 74.3----
2024-04-13 02:30 pm-------30.22- 76.3 74.3----
2024-04-13 02:24 pm-------30.23- 77.0 74.1----
2024-04-13 02:18 pm-------30.23-- 74.3----
2024-04-13 02:12 pm-------30.23-- 74.3----
2024-04-13 02:06 pm-------30.23-- 74.1----
2024-04-13 02:00 pm-------30.23-0.05 75.9 74.1----
2024-04-13 01:54 pm-------30.24- 76.3 74.1----
2024-04-13 01:48 pm-------30.24-- 74.1----
2024-04-13 01:42 pm-------30.24-- 74.1----
2024-04-13 01:36 pm-------30.24-- 74.1----
2024-04-13 01:30 pm-------30.24- 75.4 74.1----
2024-04-13 01:24 pm-------30.24- 74.8 74.1----
2024-04-13 01:18 pm-------30.24- 75.4 74.1----
2024-04-13 01:12 pm-------30.25- 75.6 74.1----
2024-04-13 01:06 pm-------30.25- 74.8 74.1----
2024-04-13 01:00 pm-------30.26-0.01 75.0 74.1----
2024-04-13 12:54 pm-------30.26- 74.5 74.1----
2024-04-13 12:48 pm-------30.26- 74.3 74.1----
2024-04-13 12:42 pm-------30.26- 73.8 74.1----
2024-04-13 12:36 pm-------30.27- 73.9 74.1----
2024-04-13 12:30 pm-------30.27-- 74.1----
2024-04-13 12:24 pm-------30.27-- 74.1----
2024-04-13 12:18 pm-------30.27-- 74.1----
2024-04-13 12:12 pm-------30.27-- 74.1----
2024-04-13 12:06 pm-------30.27-- 74.1----
2024-04-13 12:00 pm-------30.28+0.01 73.2 74.1----
2024-04-13 11:54 am-------30.28- 72.5 74.1----
2024-04-13 11:48 am-------30.28-- 74.1----
2024-04-13 11:42 am-------30.28-- 74.1----
2024-04-13 11:36 am-------30.28-- 74.1----
2024-04-13 11:30 am-------30.28- 72.5 74.1----
2024-04-13 11:24 am-------30.28- 72.1 74.1----
2024-04-13 11:18 am-------30.28- 71.8 74.1----
2024-04-13 11:12 am-------30.28- 72.0 74.1----
2024-04-13 11:06 am-------30.28- 71.6 74.1----
2024-04-13 11:00 am-------30.28- 71.6 73.9----
2024-04-13 10:54 am-------30.28- 71.6 73.9----
2024-04-13 10:48 am-------30.28- 71.1 73.9----
2024-04-13 10:42 am-------30.28- 70.9 73.9----
2024-04-13 10:36 am-------30.28- 70.5 73.9----
2024-04-13 10:30 am-------30.28- 70.5 74.1----
2024-04-13 10:24 am-------30.28- 70.9 74.1----
2024-04-13 10:18 am-------30.27- 70.3 74.1----
2024-04-13 10:12 am-------30.27- 70.3 74.1----
2024-04-13 10:06 am-------30.27- 70.0 74.1----
2024-04-13 10:00 am-------30.27+0.03 69.6 74.1----
2024-04-13 09:54 am-------30.27- 69.1 74.1----
2024-04-13 09:48 am-------30.27- 69.1 74.1----
2024-04-13 09:42 am-------30.27- 68.4 74.1----
2024-04-13 09:36 am-------30.27- 68.2 74.1----
2024-04-13 09:30 am-------30.27- 67.8 74.1----
2024-04-13 09:24 am-------30.27- 67.8 74.1----
2024-04-13 09:18 am-------30.27- 67.3 74.1----
2024-04-13 09:12 am-------30.27- 67.1 74.1----
2024-04-13 09:06 am-------30.27- 66.9 74.1----
2024-04-13 09:00 am-------30.27+0.05- 74.1----
2024-04-13 08:54 am-------30.27-- 74.1----
2024-04-13 08:48 am-------30.27- 66.0 74.1----
2024-04-13 08:42 am-------30.26- 65.8 74.1----
2024-04-13 08:36 am-------30.26- 65.5 73.9----
2024-04-13 08:30 am-------30.26- 65.3 74.1----
2024-04-13 08:24 am-------30.26- 64.9 73.9----
2024-04-13 08:18 am-------30.26- 64.9 74.1----
2024-04-13 08:12 am-------30.26- 64.8 74.1----
2024-04-13 08:06 am-------30.26- 64.8 74.1----
2024-04-13 08:00 am---------- 74.1----
2024-04-13 07:54 am---------- 74.1----
2024-04-13 07:48 am-------30.25-- 74.1----
2024-04-13 07:42 am-------30.25-- 74.1----
2024-04-13 07:36 am-------30.24-- 74.1----
2024-04-13 07:30 am-------30.24-------
2024-04-13 07:24 am-------30.24-------
2024-04-13 07:18 am-------30.24- 63.7 74.1----
2024-04-13 07:12 am-------30.24- 63.5 74.1----
2024-04-13 07:06 am-------30.24- 63.7 74.1----
2024-04-13 07:00 am-------30.24+0.04 63.9 74.1----
2024-04-13 06:54 am-------30.23- 63.9 74.1----
2024-04-13 06:48 am-------30.23-- 74.1----
2024-04-13 06:42 am-------30.23-- 74.3----
2024-04-13 06:36 am-------30.23-- 74.3----
2024-04-13 06:30 am-------30.23- 64.2-----
2024-04-13 06:24 am-------30.22- 64.0-----
2024-04-13 06:18 am-------30.22- 64.2 74.3----
2024-04-13 06:12 am-------30.22- 63.7 74.3----
2024-04-13 06:06 am-------30.22- 63.3 74.5----
2024-04-13 06:00 am-------30.22+0.02- 74.5----
2024-04-13 05:54 am-------30.22-- 74.3----
2024-04-13 05:48 am-------30.22- 62.8 74.5----
2024-04-13 05:42 am-------30.22- 62.8 74.5----
2024-04-13 05:36 am-------30.22- 62.6 74.5----
2024-04-13 05:30 am-------30.21- 62.4 74.5----
2024-04-13 05:24 am-------30.21- 62.2 74.5----
2024-04-13 05:18 am-------30.21- 62.2 74.5----
2024-04-13 05:12 am-------30.21- 63.0 74.5----
2024-04-13 05:06 am-------30.21- 63.0 74.5----
2024-04-13 05:00 am-------30.21+0.01 63.3 74.5----
2024-04-13 04:54 am-------30.21- 63.5 74.5----
2024-04-13 04:48 am-------30.21- 63.5 74.5----
2024-04-13 04:42 am-------30.20- 63.7 74.5----
2024-04-13 04:36 am-------30.20- 63.9 74.5----
2024-04-13 04:30 am-------30.20-- 74.5----
2024-04-13 04:24 am-------30.20-- 74.5----
2024-04-13 04:18 am-------30.20- 65.5 74.5----
2024-04-13 04:12 am-------30.19- 65.3 74.5----
2024-04-13 04:06 am-------30.19- 65.5 74.5----
2024-04-13 04:00 am-------30.20+0.00- 74.5----
2024-04-13 03:54 am-------30.19-- 74.5----
2024-04-13 03:48 am-------30.19- 65.8 74.5----
2024-04-13 03:42 am-------30.19- 65.8 74.5----
2024-04-13 03:36 am-------30.19- 65.8 74.5----
2024-04-13 03:30 am-------30.19- 65.8 74.5----
2024-04-13 03:24 am-------30.19- 65.5 74.5----
2024-04-13 03:18 am-------30.19- 65.5 74.5----
2024-04-13 03:12 am-------30.20- 65.7 74.5----
2024-04-13 03:06 am-------30.20- 65.5 74.5----
2024-04-13 03:00 am-------30.20+0.00 65.3 74.5----
2024-04-13 02:54 am-------30.20- 65.5 74.5----
2024-04-13 02:48 am-------30.20- 65.7 74.5----
2024-04-13 02:42 am-------30.20- 65.8 74.5----
2024-04-13 02:36 am-------30.20- 65.7 74.7----
2024-04-13 02:30 am-------30.20- 65.7 74.7----
2024-04-13 02:24 am-------30.19- 65.7 74.7----
2024-04-13 02:18 am-------30.20- 65.7 74.5----
2024-04-13 02:12 am-------30.20- 65.7 74.7----
2024-04-13 02:06 am-------30.19- 65.7 74.7----
2024-04-13 02:00 am-------30.20+0.01 65.8 74.7----
2024-04-13 01:54 am-------30.20- 66.0 74.5----
2024-04-13 01:48 am-------30.20- 65.8 74.7----
2024-04-13 01:42 am-------30.20- 66.0 74.7----
2024-04-13 01:36 am-------30.19- 66.0 74.7----
2024-04-13 01:30 am-------30.19- 66.6 74.7----
2024-04-13 01:24 am-------30.19- 66.6 74.7----
2024-04-13 01:18 am-------30.20- 66.6 74.7----
2024-04-13 01:12 am-------30.20- 66.2 74.8----
2024-04-13 01:06 am-------30.20- 66.6 74.7----
2024-04-13 01:00 am-------30.20+0.02 66.7 74.7----
2024-04-13 12:54 am-------30.19- 67.1 74.8----
2024-04-13 12:48 am-------30.19- 67.3 74.8----
2024-04-13 12:42 am-------30.20- 67.3 74.8----
2024-04-13 12:36 am-------30.20- 67.3 74.8----
2024-04-13 12:30 am-------30.20- 67.5 74.8----
2024-04-13 12:24 am-------30.20- 67.8 74.8----
2024-04-13 12:18 am-------30.20- 67.8 74.8----
2024-04-13 12:12 am-------30.20- 68.0 74.8----
2024-04-13 12:06 am-------30.20- 67.8 74.8----
2024-04-13 12:00 am-------30.20+0.05 68.2 74.8----
2024-04-12 11:54 pm-------30.20- 68.2 74.8----
2024-04-12 11:48 pm-------30.20- 68.2 74.8----
2024-04-12 11:42 pm-------30.20- 68.4 74.8----
2024-04-12 11:36 pm-------30.20- 68.5 74.8----
2024-04-12 11:30 pm-------30.20- 68.5 74.8----
2024-04-12 11:24 pm-------30.19- 68.9 74.8----
2024-04-12 11:18 pm-------30.19- 68.9 74.8----
2024-04-12 11:12 pm-------30.19- 69.3 74.8----
2024-04-12 11:06 pm-------30.19- 69.4 74.8----
2024-04-12 11:00 pm-------30.19+0.06 69.6 75.0----
2024-04-12 10:54 pm-------30.19- 69.6 75.0----
2024-04-12 10:48 pm-------30.19- 69.8 75.0----
2024-04-12 10:42 pm-------30.18- 69.8 75.0----
2024-04-12 10:36 pm-------30.18- 69.8 75.0----
2024-04-12 10:30 pm-------30.18- 69.8 75.0----
2024-04-12 10:24 pm-------30.18- 70.0 75.0----
2024-04-12 10:18 pm-------30.18- 70.0 75.0----
2024-04-12 10:12 pm-------30.18- 70.0 75.0----
2024-04-12 10:06 pm-------30.17- 70.2 75.0----
2024-04-12 10:00 pm-------30.17+0.05 70.2 75.0----
2024-04-12 09:54 pm-------30.17- 70.2 75.2----
2024-04-12 09:48 pm-------30.17- 70.3 75.2----
2024-04-12 09:42 pm-------30.17- 70.3 75.2----
2024-04-12 09:36 pm-------30.17- 70.5 75.2----
2024-04-12 09:30 pm-------30.16- 70.5 75.2----
2024-04-12 09:24 pm-------30.16- 70.7 75.2----
2024-04-12 09:18 pm-------30.16- 70.9 75.2----
2024-04-12 09:12 pm-------30.16- 70.9 75.2----
2024-04-12 09:06 pm-------30.15- 70.9 75.2----
2024-04-12 09:00 pm-------30.15+0.04 71.1 75.2----
2024-04-12 08:54 pm-------30.15- 71.2 75.2----
2024-04-12 08:48 pm-------30.15- 71.2 75.2----
2024-04-12 08:42 pm-------30.14- 71.4 75.2----
2024-04-12 08:36 pm-------30.14- 71.4 75.4----
2024-04-12 08:30 pm-------30.14- 71.6 75.2----
2024-04-12 08:24 pm-------30.14- 71.8 75.4----
2024-04-12 08:18 pm-------30.14- 72.0 75.4----
2024-04-12 08:12 pm-------30.14- 72.0 75.4----
2024-04-12 08:06 pm-------30.14- 72.1 75.4----
2024-04-12 08:00 pm-------30.13+0.02 72.3 75.4----
2024-04-12 07:54 pm-------30.13- 72.3 75.4----
2024-04-12 07:48 pm-------30.13- 72.5 75.4----
2024-04-12 07:42 pm-------30.13- 72.7 75.4----
2024-04-12 07:36 pm-------30.13- 72.7 75.4----
2024-04-12 07:30 pm-------30.13- 72.9 75.4----
2024-04-12 07:24 pm-------30.13- 73.0 75.4----
2024-04-12 07:00 pm-------30.12+0.01 73.6 75.6----
2024-04-12 06:54 pm-------30.12- 73.4 75.6----
2024-04-12 06:48 pm-------30.12- 73.6 75.6----
2024-04-12 06:42 pm-------30.12- 73.6 75.6----
2024-04-12 06:36 pm-------30.12- 73.6 75.7----
2024-04-12 06:30 pm-------30.11- 73.4 75.6----
2024-04-12 06:24 pm-------30.12- 73.6 75.6----
2024-04-12 06:18 pm-------30.12- 73.8 75.6----
2024-04-12 06:12 pm-------30.11- 73.6 75.6----
2024-04-12 06:06 pm-------30.11- 73.8 75.6----
2024-04-12 06:00 pm-------30.11-0.01 73.6 75.6----
2024-04-12 05:54 pm-------30.11- 73.9 75.6----
2024-04-12 05:48 pm-------30.11- 74.1 75.6----
2024-04-12 05:42 pm-------30.11- 73.6 75.6----
2024-04-12 05:36 pm-------30.11- 74.1 75.6----
2024-04-12 05:30 pm-------30.11- 73.8 75.6----
2024-04-12 05:24 pm-------30.12- 74.3 75.6----
2024-04-12 05:18 pm-------30.11- 74.5 75.6----
2024-04-12 05:12 pm-------30.11- 74.3 75.6----
2024-04-12 05:06 pm-------30.11- 74.3 75.4----
2024-04-12 05:00 pm-------30.11-0.02 74.5 75.4----
2024-04-12 04:54 pm-------30.11- 74.8 75.4----
2024-04-12 04:48 pm-------30.11- 74.3 75.4----
2024-04-12 04:42 pm-------30.11- 74.1 75.4----
2024-04-12 04:36 pm-------30.11- 74.3 75.4----
2024-04-12 04:30 pm-------30.11- 74.5 75.6----
2024-04-12 04:24 pm-------30.11- 74.7 75.6----
2024-04-12 04:18 pm-------30.11- 74.5 75.4----
2024-04-12 04:12 pm-------30.11- 74.8 75.2----
2024-04-12 04:06 pm-------30.11- 74.8 75.0----
2024-04-12 04:00 pm-------30.11-0.04 74.3 74.8----
2024-04-12 03:54 pm-------30.11- 74.8 74.7----